Hourly Data Report for July 02, 2016

TORONTO CITY
ONTARIO

43°40'00.000" N
79°24'00.000" W
112.50 m
6158355
71508
XTO

Download Data

Hourly Data (July 2016)
Hourly Data Report for July 2, 2016
TIME
LST
Temp Definition
°C
Dew Point Definition
°C
Rel Hum Definition
%
Precip. Amount Definition
mm

Wind Dir Definition
10's deg

Wind Spd Definition
km/h
Visibility Definition
km
Stn Press Definition
kPa
Hmdx Definition


Wind Chill Definition


Weather Definition


00:00 15.2 10.0 71 0.0 LegendMM LegendMM   100.20     LegendNANA
01:00 14.7 9.8 72 0.0 LegendMM LegendMM   100.21     LegendNANA
02:00 14.2 9.6 74 0.0 LegendMM LegendMM   100.23     LegendNANA
03:00 13.6 9.5 77 0.0 LegendMM LegendMM   100.26     LegendNANA
04:00 13.8 9.7 77 0.0 LegendMM LegendMM   100.30     LegendNANA
05:00 13.5 9.5 77 0.0 LegendMM LegendMM   100.35     LegendNANA
06:00 14.4 9.7 74 0.0 LegendMM LegendMM   100.39     LegendNANA
07:00 16.8 9.7 63 0.0 LegendMM LegendMM   100.42     LegendNANA
08:00 18.5 9.5 56 0.0 LegendMM LegendMM   100.44     LegendNANA
09:00 21.0 10.0 49 0.0 LegendMM LegendMM   100.42     LegendNANA
10:00 22.3 10.4 47 0.0 LegendMM LegendMM   100.43     LegendNANA
11:00 23.2 8.5 39 0.0 LegendMM LegendMM   100.40     LegendNANA
12:00 23.8 7.5 35 0.0 LegendMM LegendMM   100.39     LegendNANA
13:00 25.1 7.9 33 0.0 LegendMM LegendMM   100.36 25   LegendNANA
14:00 25.8 7.6 31 0.0 LegendMM LegendMM   100.32 26   LegendNANA
15:00 25.6 7.2 31 0.0 LegendMM LegendMM   100.31 26   LegendNANA
16:00 25.1 6.2 30 0.0 LegendMM LegendMM   100.33 25   LegendNANA
17:00 24.8 6.9 32 0.0 LegendMM LegendMM   100.35 25   LegendNANA
18:00 24.6 6.7 32 0.0 LegendMM LegendMM   100.36     LegendNANA
19:00 23.7 6.3 33 0.0 LegendMM LegendMM   100.38     LegendNANA
20:00 22.5 6.2 35 0.0 LegendMM LegendMM   100.39     LegendNANA
21:00 22.0 6.6 37 0.0 LegendMM LegendMM   100.46     LegendNANA
22:00 21.5 7.0 39 0.0 LegendMM LegendMM   100.46     LegendNANA
23:00 19.3 7.9 48 0.0 LegendMM LegendMM   100.47     LegendNANA

Notes on Data Quality.

Legend

  • E = Estimated
  • M = Missing
  • NA = Not Available*
  • [empty] = Indicates an unobserved value
Date modified: